Time,TemperatureF,DewpointF,PressureIn,WindDirection,WindDirectionDegrees,WindSpeedMPH,WindSpeedGustMPH,Humidity,HourlyPrecipIn,Conditions,Clouds,dailyrainin,SoftwareType,DateUTC
2013-01-17 00:00:00,29.7,23.1,30.00,WNW,283,5.0,17.0,76,0.00,,OVC033,0.00,VWS V14.01,2013-01-17 06:00:00,
2013-01-17 00:05:00,29.5,22.2,30.00,WNW,296,12.0,16.0,74,0.00,,SCT030,0.00,VWS V14.01,2013-01-17 06:05:00,
2013-01-17 00:10:00,29.3,21.7,30.00,NW,304,9.0,16.0,73,0.00,,SCT030,0.00,VWS V14.01,2013-01-17 06:10:00,
2013-01-17 00:15:00,29.2,21.0,30.00,NW,323,4.0,14.0,71,0.00,,SCT030,0.00,VWS V14.01,2013-01-17 06:15:00,
2013-01-17 00:20:00,29.1,20.9,30.01,NW,325,3.0,13.0,71,0.00,,SCT030,0.00,VWS V14.01,2013-01-17 06:20:00,
2013-01-17 00:25:00,28.9,20.4,30.01,WNW,296,5.0,14.0,70,0.00,,SCT030,0.00,VWS V14.01,2013-01-17 06:25:00,
2013-01-17 00:30:00,28.7,19.8,30.02,WNW,299,9.0,13.0,69,0.00,,SCT030,0.00,VWS V14.01,2013-01-17 06:30:00,
2013-01-17 00:35:00,28.6,19.7,30.02,WNW,300,8.0,12.0,69,0.00,,SCT030,0.00,VWS V14.01,2013-01-17 06:35:00,
2013-01-17 00:40:00,28.5,19.6,30.03,NW,313,7.0,14.0,69,0.00,,SCT030,0.00,VWS V14.01,2013-01-17 06:40:00,
2013-01-17 00:45:00,28.3,19.1,30.03,NW,308,9.0,13.0,68,0.00,,SCT030,0.00,VWS V14.01,2013-01-17 06:45:00,
2013-01-17 00:50:00,28.2,18.7,30.04,NW,319,13.0,14.0,67,0.00,,SCT030,0.00,VWS V14.01,2013-01-17 06:50:00,
2013-01-17 00:55:00,28.2,18.7,30.04,WNW,289,10.0,12.0,67,0.00,,SCT030,0.00,VWS V14.01,2013-01-17 06:55:00,
2013-01-17 01:00:00,28.0,18.5,30.05,WNW,300,5.0,13.0,67,0.00,,FEW030,0.00,VWS V14.01,2013-01-17 07:00:00,
2013-01-17 01:05:00,27.8,18.6,30.05,NW,321,10.0,11.0,68,0.00,,FEW030,0.00,VWS V14.01,2013-01-17 07:05:00,
2013-01-17 01:10:00,27.7,18.2,30.05,NW,309,13.0,16.0,67,0.00,,FEW030,0.00,VWS V14.01,2013-01-17 07:10:00,
2013-01-17 01:15:00,27.5,18.0,30.05,NW,309,7.0,10.0,67,0.00,,FEW030,0.00,VWS V14.01,2013-01-17 07:15:00,
2013-01-17 01:20:00,27.4,17.9,30.05,NW,307,5.0,12.0,67,0.00,,FEW030,0.00,VWS V14.01,2013-01-17 07:20:00,
2013-01-17 01:25:00,27.2,17.7,30.06,NW,307,5.0,9.0,67,0.00,,FEW030,0.00,VWS V14.01,2013-01-17 07:25:00,
2013-01-17 01:30:00,27.1,17.6,30.06,WNW,302,4.0,9.0,67,0.00,,FEW120,0.00,VWS V14.01,2013-01-17 07:30:00,
2013-01-17 01:31:00,27.0,17.2,30.06,WNW,303,4.0,9.0,66,0.00,,FEW030,0.00,VWS V14.01,2013-01-17 07:31:00,
2013-01-17 01:35:00,26.9,16.7,30.06,NW,307,3.0,10.0,65,0.00,,FEW120,0.00,VWS V14.01,2013-01-17 07:35:00,
2013-01-17 01:36:00,26.9,16.7,30.07,NW,304,3.0,10.0,65,0.00,,FEW030,0.00,VWS V14.01,2013-01-17 07:36:00,
2013-01-17 01:40:00,26.8,16.6,30.07,WNW,302,4.0,12.0,65,0.00,,FEW120,0.00,VWS V14.01,2013-01-17 07:40:00,
2013-01-17 01:41:00,26.8,16.6,30.07,NW,304,7.0,10.0,65,0.00,,FEW030,0.00,VWS V14.01,2013-01-17 07:41:00,
2013-01-17 01:45:00,26.7,16.5,30.07,WNW,302,5.0,10.0,65,0.00,,FEW120,0.00,VWS V14.01,2013-01-17 07:45:00,
2013-01-17 01:46:00,26.6,16.4,30.07,NW,305,5.0,10.0,65,0.00,,FEW030,0.00,VWS V14.01,2013-01-17 07:46:00,
2013-01-17 01:50:00,26.5,16.0,30.07,WNW,292,8.0,12.0,64,0.00,,FEW120,0.00,VWS V14.01,2013-01-17 07:50:00,
2013-01-17 01:51:00,26.5,16.0,30.07,WNW,302,8.0,12.0,64,0.00,,FEW030,0.00,VWS V14.01,2013-01-17 07:51:00,
2013-01-17 01:55:00,26.4,15.9,30.07,NW,309,5.0,11.0,64,0.00,,FEW120,0.00,VWS V14.01,2013-01-17 07:55:00,
2013-01-17 01:56:00,26.3,15.8,30.07,NW,309,5.0,11.0,64,0.00,,FEW030,0.00,VWS V14.01,2013-01-17 07:56:00,
2013-01-17 02:00:00,26.1,16.0,30.07,West,275,8.0,11.0,65,0.00,,FEW120,0.00,VWS V14.01,2013-01-17 08:00:00,
2013-01-17 02:01:00,26.1,16.0,30.07,NW,306,8.0,11.0,65,0.00,,CLR,0.00,VWS V14.01,2013-01-17 08:01:00,
2013-01-17 02:05:00,26.0,15.5,30.08,WNW,298,9.0,10.0,64,0.00,,FEW120,0.00,VWS V14.01,2013-01-17 08:05:00,
2013-01-17 02:06:00,25.9,15.8,30.08,WNW,292,5.0,10.0,65,0.00,,CLR,0.00,VWS V14.01,2013-01-17 08:06:00,
2013-01-17 02:10:00,25.7,15.6,30.08,WNW,296,3.0,10.0,65,0.00,,FEW120,0.00,VWS V14.01,2013-01-17 08:10:00,
2013-01-17 02:11:00,25.7,15.6,30.08,WNW,293,8.0,11.0,65,0.00,,CLR,0.00,VWS V14.01,2013-01-17 08:11:00,
2013-01-17 02:15:00,25.6,15.5,30.08,NW,305,5.0,11.0,65,0.00,,FEW120,0.00,VWS V14.01,2013-01-17 08:15:00,
2013-01-17 02:16:00,25.5,15.7,30.08,WNW,303,4.0,8.0,66,0.00,,CLR,0.00,VWS V14.01,2013-01-17 08:16:00,
2013-01-17 02:20:00,25.4,15.6,30.09,West,267,6.0,11.0,66,0.00,,FEW120,0.00,VWS V14.01,2013-01-17 08:20:00,
2013-01-17 02:21:00,25.4,15.6,30.09,WNW,286,5.0,11.0,66,0.00,,CLR,0.00,VWS V14.01,2013-01-17 08:21:00,
2013-01-17 02:25:00,25.3,15.9,30.09,NW,311,5.0,8.0,67,0.00,,FEW120,0.00,VWS V14.01,2013-01-17 08:25:00,
2013-01-17 02:26:00,25.3,15.9,30.10,WNW,296,5.0,7.0,67,0.00,,CLR,0.00,VWS V14.01,2013-01-17 08:26:00,
2013-01-17 02:30:00,25.1,15.7,30.10,WNW,289,7.0,8.0,67,0.00,,FEW120,0.00,VWS V14.01,2013-01-17 08:30:00,
2013-01-17 02:31:00,25.1,15.7,30.11,WNW,292,3.0,8.0,67,0.00,,CLR,0.00,VWS V14.01,2013-01-17 08:31:00,
2013-01-17 02:35:00,25.0,15.6,30.11,WNW,293,3.0,8.0,67,0.00,,FEW120,0.00,VWS V14.01,2013-01-17 08:35:00,
2013-01-17 02:36:00,24.9,15.5,30.11,WNW,294,4.0,8.0,67,0.00,,CLR,0.00,VWS V14.01,2013-01-17 08:36:00,
2013-01-17 02:40:00,24.9,15.5,30.11,WNW,296,1.0,7.0,67,0.00,,FEW120,0.00,VWS V14.01,2013-01-17 08:40:00,
2013-01-17 02:41:00,24.8,15.4,30.12,WNW,302,5.0,8.0,67,0.00,,CLR,0.00,VWS V14.01,2013-01-17 08:41:00,
2013-01-17 02:45:00,24.7,15.3,30.12,WNW,302,5.0,8.0,67,0.00,,FEW120,0.00,VWS V14.01,2013-01-17 08:45:00,
2013-01-17 02:46:00,24.7,15.3,30.12,NW,312,5.0,8.0,67,0.00,,CLR,0.00,VWS V14.01,2013-01-17 08:46:00,
2013-01-17 02:50:00,24.6,15.2,30.12,NW,314,5.0,11.0,67,0.00,,FEW120,0.00,VWS V14.01,2013-01-17 08:50:00,
2013-01-17 02:52:00,24.6,15.2,30.12,NW,308,5.0,11.0,67,0.00,,CLR,0.00,VWS V14.01,2013-01-17 08:52:00,
2013-01-17 02:55:00,24.6,15.2,30.12,NW,309,6.0,9.0,67,0.00,,FEW120,0.00,VWS V14.01,2013-01-17 08:55:00,
2013-01-17 02:57:00,24.5,15.1,30.13,NNW,336,4.0,8.0,67,0.00,,CLR,0.00,VWS V14.01,2013-01-17 08:57:00,
2013-01-17 03:00:00,24.5,15.1,30.13,NW,322,2.0,7.0,67,0.00,,FEW120,0.00,VWS V14.01,2013-01-17 09:00:00,
2013-01-17 03:02:00,24.4,15.0,30.13,NW,322,0.0,4.0,67,0.00,,CLR,0.00,VWS V14.01,2013-01-17 09:02:00,
2013-01-17 03:05:00,24.3,15.3,30.14,NW,322,2.0,4.0,68,0.00,,FEW120,0.00,VWS V14.01,2013-01-17 09:05:00,
2013-01-17 03:07:00,24.2,15.2,30.13,NW,322,1.0,4.0,68,0.00,,CLR,0.00,VWS V14.01,2013-01-17 09:07:00,
2013-01-17 03:10:00,24.1,15.4,30.13,NW,322,1.0,3.0,69,0.00,,FEW120,0.00,VWS V14.01,2013-01-17 09:10:00,
2013-01-17 03:12:00,24.0,15.3,30.14,NW,322,3.0,3.0,69,0.00,,CLR,0.00,VWS V14.01,2013-01-17 09:12:00,
2013-01-17 03:15:00,23.9,15.6,30.14,NW,322,1.0,3.0,70,0.00,,FEW120,0.00,VWS V14.01,2013-01-17 09:15:00,
2013-01-17 03:17:00,23.8,15.5,30.14,NW,322,0.0,3.0,70,0.00,,CLR,0.00,VWS V14.01,2013-01-17 09:17:00,
2013-01-17 03:20:00,23.8,15.5,30.14,NW,322,0.0,0.0,70,0.00,,FEW120,0.00,VWS V14.01,2013-01-17 09:20:00,
2013-01-17 03:22:00,23.7,15.4,30.14,NW,322,0.0,0.0,70,0.00,,CLR,0.00,VWS V14.01,2013-01-17 09:22:00,
2013-01-17 03:25:00,23.7,15.4,30.14,NW,322,0.0,0.0,70,0.00,,FEW120,0.00,VWS V14.01,2013-01-17 09:25:00,
2013-01-17 03:27:00,23.6,15.6,30.14,NW,322,1.0,3.0,71,0.00,,CLR,0.00,VWS V14.01,2013-01-17 09:27:00,
2013-01-17 03:30:00,23.5,15.2,30.14,NW,322,0.0,3.0,70,0.00,,FEW120,0.00,VWS V14.01,2013-01-17 09:30:00,
2013-01-17 03:32:00,23.3,15.0,30.14,NW,322,0.0,3.0,70,0.00,,CLR,0.00,VWS V14.01,2013-01-17 09:32:00,
2013-01-17 03:35:00,23.2,15.2,30.14,NW,322,0.0,0.0,71,0.00,,FEW120,0.00,VWS V14.01,2013-01-17 09:35:00,
2013-01-17 03:37:00,23.1,15.1,30.14,NW,321,0.0,3.0,71,0.00,,CLR,0.00,VWS V14.01,2013-01-17 09:37:00,
2013-01-17 03:40:00,23.1,15.1,30.14,NW,322,2.0,3.0,71,0.00,,FEW120,0.00,VWS V14.01,2013-01-17 09:40:00,
2013-01-17 03:42:00,23.0,15.0,30.14,NW,321,0.0,3.0,71,0.00,,CLR,0.00,VWS V14.01,2013-01-17 09:42:00,
2013-01-17 03:45:00,23.1,15.4,30.14,NW,322,0.0,3.0,72,0.00,,FEW120,0.00,VWS V14.01,2013-01-17 09:45:00,
2013-01-17 03:47:00,23.0,15.3,30.14,NW,322,0.0,0.0,72,0.00,,CLR,0.00,VWS V14.01,2013-01-17 09:47:00,
2013-01-17 03:50:00,23.0,15.3,30.15,NW,321,0.0,0.0,72,0.00,,FEW120,0.00,VWS V14.01,2013-01-17 09:50:00,
2013-01-17 03:52:00,22.9,15.2,30.15,NW,321,0.0,0.0,72,0.00,,CLR,0.00,VWS V14.01,2013-01-17 09:52:00,
2013-01-17 03:55:00,22.8,15.1,30.15,NW,321,0.0,0.0,72,0.00,,FEW120,0.00,VWS V14.01,2013-01-17 09:55:00,
2013-01-17 03:58:00,22.7,14.7,30.15,WNW,302,0.0,3.0,71,0.00,,CLR,0.00,VWS V14.01,2013-01-17 09:58:00,
2013-01-17 04:00:00,22.6,14.9,30.15,WNW,288,5.0,8.0,72,0.00,,FEW120,0.00,VWS V14.01,2013-01-17 10:00:00,
2013-01-17 04:03:00,22.5,14.5,30.16,WNW,302,3.0,8.0,71,0.00,,CLR,0.00,VWS V14.01,2013-01-17 10:03:00,
2013-01-17 04:05:00,22.4,14.4,30.16,West,276,8.0,9.0,71,0.00,,FEW120,0.00,VWS V14.01,2013-01-17 10:05:00,
2013-01-17 04:08:00,22.3,14.0,30.16,NW,305,0.0,9.0,70,0.00,,CLR,0.00,VWS V14.01,2013-01-17 10:08:00,
2013-01-17 04:10:00,22.3,14.0,30.15,NW,306,2.0,7.0,70,0.00,,FEW120,0.00,VWS V14.01,2013-01-17 10:10:00,
2013-01-17 04:13:00,22.2,13.9,30.16,WNW,294,4.0,5.0,70,0.00,,CLR,0.00,VWS V14.01,2013-01-17 10:13:00,
2013-01-17 04:15:00,22.2,13.9,30.16,WNW,302,2.0,6.0,70,0.00,,FEW120,0.00,VWS V14.01,2013-01-17 10:15:00,
2013-01-17 04:18:00,22.1,13.8,30.16,NW,309,4.0,6.0,70,0.00,,CLR,0.00,VWS V14.01,2013-01-17 10:18:00,
2013-01-17 04:20:00,22.1,13.8,30.16,NW,309,3.0,5.0,70,0.00,,FEW120,0.00,VWS V14.01,2013-01-17 10:20:00,
2013-01-17 04:23:00,22.1,14.1,30.16,NW,307,0.0,4.0,71,0.00,,CLR,0.00,VWS V14.01,2013-01-17 10:23:00,
2013-01-17 04:25:00,22.2,14.2,30.16,NW,307,1.0,4.0,71,0.00,,FEW120,0.00,VWS V14.01,2013-01-17 10:25:00,
2013-01-17 04:28:00,22.0,14.1,30.16,WNW,288,3.0,4.0,71,0.00,,CLR,0.00,VWS V14.01,2013-01-17 10:28:00,
2013-01-17 04:30:00,21.9,13.9,30.16,West,278,2.0,6.0,71,0.00,,FEW120,0.00,VWS V14.01,2013-01-17 10:30:00,
2013-01-17 04:33:00,21.9,14.0,30.16,West,280,3.0,5.0,71,0.00,,CLR,0.00,VWS V14.01,2013-01-17 10:33:00,
2013-01-17 04:35:00,21.8,13.9,30.16,WNW,292,4.0,5.0,71,0.00,,,0.00,VWS V14.01,2013-01-17 10:35:00,
2013-01-17 04:38:00,21.8,13.9,30.16,West,280,3.0,6.0,71,0.00,,CLR,0.00,VWS V14.01,2013-01-17 10:38:00,
2013-01-17 04:40:00,21.8,13.9,30.16,WNW,289,1.0,6.0,71,0.00,,FEW120,0.00,VWS V14.01,2013-01-17 10:40:00,
2013-01-17 04:43:00,21.7,13.8,30.16,WNW,291,2.0,5.0,71,0.00,,CLR,0.00,VWS V14.01,2013-01-17 10:43:00,
2013-01-17 04:45:00,21.7,13.8,30.16,West,268,2.0,6.0,71,0.00,,,0.00,VWS V14.01,2013-01-17 10:45:00,
2013-01-17 04:48:00,21.6,13.7,30.16,West,272,5.0,6.0,71,0.00,,CLR,0.00,VWS V14.01,2013-01-17 10:48:00,
2013-01-17 04:50:00,21.5,13.6,30.16,West,261,7.0,7.0,71,0.00,,,0.00,VWS V14.01,2013-01-17 10:50:00,
2013-01-17 04:53:00,21.3,13.4,30.17,West,271,5.0,8.0,71,0.00,,CLR,0.00,VWS V14.01,2013-01-17 10:53:00,
2013-01-17 04:55:00,21.3,13.4,30.17,WSW,257,8.0,9.0,71,0.00,,FEW120,0.00,VWS V14.01,2013-01-17 10:55:00,
2013-01-17 04:58:00,21.1,13.2,30.17,West,266,5.0,10.0,71,0.00,,CLR,0.00,VWS V14.01,2013-01-17 10:58:00,
2013-01-17 05:00:00,21.1,13.2,30.17,West,274,6.0,10.0,71,0.00,,FEW120,0.00,VWS V14.01,2013-01-17 11:00:00,
2013-01-17 05:03:00,20.9,13.0,30.17,West,272,6.0,10.0,71,0.00,,CLR,0.00,VWS V14.01,2013-01-17 11:03:00,
2013-01-17 05:05:00,20.9,13.0,30.17,West,273,6.0,10.0,71,0.00,,FEW120,0.00,VWS V14.01,2013-01-17 11:05:00,
2013-01-17 05:08:00,20.8,12.9,30.17,West,263,6.0,8.0,71,0.00,,CLR,0.00,VWS V14.01,2013-01-17 11:08:00,
2013-01-17 05:10:00,20.7,12.8,30.17,West,261,2.0,8.0,71,0.00,,FEW120,0.00,VWS V14.01,2013-01-17 11:10:00,
2013-01-17 05:14:00,20.5,12.9,30.17,West,268,8.0,8.0,72,0.00,,CLR,0.00,VWS V14.01,2013-01-17 11:14:00,
2013-01-17 05:15:00,20.4,12.5,30.17,West,271,5.0,8.0,71,0.00,,FEW120,0.00,VWS V14.01,2013-01-17 11:15:00,
2013-01-17 05:19:00,20.3,12.7,30.18,West,274,2.0,9.0,72,0.00,,CLR,0.00,VWS V14.01,2013-01-17 11:19:00,
2013-01-17 05:20:00,20.2,12.6,30.18,West,267,3.0,9.0,72,0.00,,FEW120,0.00,VWS V14.01,2013-01-17 11:20:00,
2013-01-17 05:24:00,20.1,12.2,30.18,West,269,9.0,11.0,71,0.00,,CLR,0.00,VWS V14.01,2013-01-17 11:24:00,
2013-01-17 05:25:00,20.1,12.2,30.18,WNW,286,7.0,11.0,71,0.00,,FEW120,0.00,VWS V14.01,2013-01-17 11:25:00,
2013-01-17 05:29:00,19.9,12.0,30.18,West,277,6.0,10.0,71,0.00,,CLR,0.00,VWS V14.01,2013-01-17 11:29:00,
2013-01-17 05:30:00,19.9,12.0,30.18,WNW,289,3.0,10.0,71,0.00,,FEW120,0.00,VWS V14.01,2013-01-17 11:30:00,
2013-01-17 05:34:00,19.8,11.9,30.18,WSW,257,6.0,13.0,71,0.00,,CLR,0.00,VWS V14.01,2013-01-17 11:34:00,
2013-01-17 05:35:00,19.8,11.9,30.19,West,275,7.0,13.0,71,0.00,,FEW120,0.00,VWS V14.01,2013-01-17 11:35:00,
2013-01-17 05:39:00,19.7,11.8,30.18,West,279,3.0,10.0,71,0.00,,CLR,0.00,VWS V14.01,2013-01-17 11:39:00,
2013-01-17 05:40:00,19.7,11.8,30.18,West,277,6.0,10.0,71,0.00,,FEW120,0.00,VWS V14.01,2013-01-17 11:40:00,
2013-01-17 05:44:00,19.7,11.8,30.18,West,279,5.0,10.0,71,0.00,,CLR,0.00,VWS V14.01,2013-01-17 11:44:00,
2013-01-17 05:45:00,19.8,11.9,30.18,WNW,294,6.0,10.0,71,0.00,,FEW120,0.00,VWS V14.01,2013-01-17 11:45:00,
2013-01-17 05:49:00,19.7,11.8,30.19,West,275,6.0,9.0,71,0.00,,CLR,0.00,VWS V14.01,2013-01-17 11:49:00,
2013-01-17 05:50:00,19.7,11.8,30.19,West,276,7.0,9.0,71,0.00,,FEW120,0.00,VWS V14.01,2013-01-17 11:50:00,
2013-01-17 05:54:00,19.6,11.4,30.19,West,261,10.0,10.0,70,0.00,,CLR,0.00,VWS V14.01,2013-01-17 11:54:00,
2013-01-17 05:55:00,19.6,11.4,30.19,West,260,4.0,10.0,70,0.00,,FEW120,0.00,VWS V14.01,2013-01-17 11:55:00,
2013-01-17 05:59:00,19.5,11.3,30.19,West,269,8.0,10.0,70,0.00,,CLR,0.00,VWS V14.01,2013-01-17 11:59:00,
2013-01-17 06:00:00,19.5,11.3,30.19,West,280,6.0,10.0,70,0.00,,FEW120,0.00,VWS V14.01,2013-01-17 12:00:00,
2013-01-17 06:04:00,19.3,11.1,30.20,West,272,3.0,9.0,70,0.00,,CLR,0.00,VWS V14.01,2013-01-17 12:04:00,
2013-01-17 06:05:00,19.3,11.1,30.20,West,273,6.0,9.0,70,0.00,,FEW120,0.00,VWS V14.01,2013-01-17 12:05:00,
2013-01-17 06:09:00,19.1,11.3,30.20,West,274,5.0,9.0,71,0.00,,CLR,0.00,VWS V14.01,2013-01-17 12:09:00,
2013-01-17 06:10:00,19.1,11.3,30.20,West,274,7.0,9.0,71,0.00,,FEW120,0.00,VWS V14.01,2013-01-17 12:10:00,
2013-01-17 06:14:00,19.0,10.8,30.20,West,263,11.0,11.0,70,0.00,,CLR,0.00,VWS V14.01,2013-01-17 12:14:00,
2013-01-17 06:15:00,19.0,10.8,30.20,West,267,11.0,11.0,70,0.00,,FEW120,0.00,VWS V14.01,2013-01-17 12:15:00,
2013-01-17 06:19:00,19.0,10.8,30.20,West,277,6.0,9.0,70,0.00,,CLR,0.00,VWS V14.01,2013-01-17 12:19:00,
2013-01-17 06:20:00,19.0,10.8,30.20,West,277,6.0,9.0,70,0.00,,FEW120,0.00,VWS V14.01,2013-01-17 12:20:00,
2013-01-17 06:24:00,18.8,10.6,30.21,WNW,288,10.0,10.0,70,0.00,,CLR,0.00,VWS V14.01,2013-01-17 12:24:00,
2013-01-17 06:25:00,18.8,10.6,30.21,WNW,288,10.0,10.0,70,0.00,,FEW120,0.00,VWS V14.01,2013-01-17 12:25:00,
2013-01-17 06:29:00,18.6,10.8,30.21,West,265,9.0,10.0,71,0.00,,CLR,0.00,VWS V14.01,2013-01-17 12:29:00,
2013-01-17 06:30:00,18.6,10.8,30.21,West,265,9.0,10.0,71,0.00,,FEW120,0.00,VWS V14.01,2013-01-17 12:30:00,
2013-01-17 06:34:00,18.5,10.7,30.21,West,265,6.0,9.0,71,0.00,,CLR,0.00,VWS V14.01,2013-01-17 12:34:00,
2013-01-17 06:35:00,18.5,10.7,30.21,West,265,6.0,9.0,71,0.00,,FEW120,0.00,VWS V14.01,2013-01-17 12:35:00,
2013-01-17 06:39:00,18.5,10.4,30.22,West,270,8.0,12.0,70,0.00,,CLR,0.00,VWS V14.01,2013-01-17 12:39:00,
2013-01-17 06:40:00,18.5,10.4,30.22,West,270,8.0,12.0,70,0.00,,FEW120,0.00,VWS V14.01,2013-01-17 12:40:00,
2013-01-17 06:44:00,18.4,10.3,30.22,West,264,7.0,11.0,70,0.00,,CLR,0.00,VWS V14.01,2013-01-17 12:44:00,
2013-01-17 06:45:00,18.4,10.3,30.22,West,264,7.0,11.0,70,0.00,,FEW120,0.00,VWS V14.01,2013-01-17 12:45:00,
2013-01-17 06:49:00,18.3,10.2,30.22,West,275,8.0,10.0,70,0.00,,CLR,0.00,VWS V14.01,2013-01-17 12:49:00,
2013-01-17 06:50:00,18.3,10.2,30.22,West,275,8.0,10.0,70,0.00,,FEW120,0.00,VWS V14.01,2013-01-17 12:50:00,
2013-01-17 06:54:00,18.2,10.1,30.22,WNW,285,6.0,13.0,70,0.00,,CLR,0.00,VWS V14.01,2013-01-17 12:54:00,
2013-01-17 06:55:00,18.2,10.1,30.22,WNW,285,6.0,13.0,70,0.00,,FEW120,0.00,VWS V14.01,2013-01-17 12:55:00,
2013-01-17 06:59:00,18.2,10.4,30.22,West,262,6.0,9.0,71,0.00,,CLR,0.00,VWS V14.01,2013-01-17 12:59:00,
2013-01-17 07:00:00,18.2,10.4,30.22,West,262,6.0,9.0,71,0.00,,FEW120,0.00,VWS V14.01,2013-01-17 13:00:00,
2013-01-17 07:05:00,18.1,10.3,30.23,West,271,6.0,11.0,71,0.00,,CLR,0.00,VWS V14.01,2013-01-17 13:05:00,
2013-01-17 07:10:00,18.0,10.2,30.23,WNW,290,7.0,12.0,71,0.00,,CLR,0.00,VWS V14.01,2013-01-17 13:10:00,
2013-01-17 07:15:00,18.0,10.2,30.23,WNW,296,7.0,14.0,71,0.00,,CLR,0.00,VWS V14.01,2013-01-17 13:15:00,
2013-01-17 07:20:00,17.9,10.4,30.22,WNW,286,6.0,8.0,72,0.00,,CLR,0.00,VWS V14.01,2013-01-17 13:20:00,
2013-01-17 07:25:00,17.8,10.3,30.23,WNW,289,7.0,10.0,72,0.00,,CLR,0.00,VWS V14.01,2013-01-17 13:25:00,
2013-01-17 07:30:00,17.8,10.0,30.23,West,263,6.0,11.0,71,0.00,,CLR,0.00,VWS V14.01,2013-01-17 13:30:00,
2013-01-17 07:35:00,17.9,9.8,30.23,West,281,3.0,12.0,70,0.00,,CLR,0.00,VWS V14.01,2013-01-17 13:35:00,
2013-01-17 07:40:00,18.0,9.9,30.24,West,278,7.0,12.0,70,0.00,,CLR,0.00,VWS V14.01,2013-01-17 13:40:00,
2013-01-17 07:45:00,18.0,9.9,30.25,West,263,8.0,13.0,70,0.00,,CLR,0.00,VWS V14.01,2013-01-17 13:45:00,
2013-01-17 07:50:00,18.0,9.2,30.25,WNW,282,10.0,15.0,68,0.00,,CLR,0.00,VWS V14.01,2013-01-17 13:50:00,
2013-01-17 07:55:00,18.0,9.2,30.25,West,274,11.0,13.0,68,0.00,,CLR,0.00,VWS V14.01,2013-01-17 13:55:00,
2013-01-17 08:00:00,18.1,9.3,30.26,WNW,297,8.0,12.0,68,0.00,,CLR,0.00,VWS V14.01,2013-01-17 14:00:00,
2013-01-17 08:05:00,18.1,9.0,30.26,West,275,7.0,14.0,67,0.00,,CLR,0.00,VWS V14.01,2013-01-17 14:05:00,
2013-01-17 08:10:00,18.1,9.0,30.26,West,280,5.0,14.0,67,0.00,,FEW120,0.00,VWS V14.01,2013-01-17 14:10:00,
2013-01-17 08:11:00,18.2,9.1,30.26,West,266,8.0,14.0,67,0.00,,CLR,0.00,VWS V14.01,2013-01-17 14:11:00,
2013-01-17 08:15:00,18.2,9.1,30.26,WNW,292,9.0,12.0,67,0.00,,FEW120,0.00,VWS V14.01,2013-01-17 14:15:00,
2013-01-17 08:16:00,18.2,9.1,30.26,West,275,5.0,13.0,67,0.00,,CLR,0.00,VWS V14.01,2013-01-17 14:16:00,
2013-01-17 08:20:00,18.9,7.7,30.28,West,279,16.0,16.0,61,0.00,,FEW070,0.00,VWS V14.01,2013-01-17 14:20:00,
2013-01-17 08:21:00,18.1,8.7,30.26,West,271,10.0,13.0,66,0.00,,CLR,0.00,VWS V14.01,2013-01-17 14:21:00,
2013-01-17 08:25:00,19.0,7.4,30.28,WNW,292,10.0,17.0,60,0.00,,FEW070,0.00,VWS V14.01,2013-01-17 14:25:00,
2013-01-17 08:26:00,18.2,8.8,30.27,WNW,282,5.0,15.0,66,0.00,,CLR,0.00,VWS V14.01,2013-01-17 14:26:00,
2013-01-17 08:30:00,18.2,8.8,30.27,West,269,10.0,15.0,66,0.00,,FEW120,0.00,VWS V14.01,2013-01-17 14:30:00,
2013-01-17 08:31:00,18.2,8.8,30.27,NW,305,9.0,15.0,66,0.00,,CLR,0.00,VWS V14.01,2013-01-17 14:31:00,
2013-01-17 08:35:00,18.2,8.8,30.27,West,266,7.0,13.0,66,0.00,,,0.00,VWS V14.01,2013-01-17 14:35:00,
2013-01-17 08:36:00,18.3,8.9,30.27,WSW,252,11.0,15.0,66,0.00,,CLR,0.00,VWS V14.01,2013-01-17 14:36:00,
2013-01-17 08:40:00,18.3,8.5,30.27,WNW,302,11.0,15.0,65,0.00,,,0.00,VWS V14.01,2013-01-17 14:40:00,
2013-01-17 08:41:00,18.3,8.5,30.27,West,280,5.0,15.0,65,0.00,,CLR,0.00,VWS V14.01,2013-01-17 14:41:00,
2013-01-17 08:45:00,18.5,8.7,30.27,WSW,257,9.0,12.0,65,0.00,,FEW120,0.00,VWS V14.01,2013-01-17 14:45:00,
2013-01-17 08:46:00,18.6,8.8,30.27,West,267,8.0,12.0,65,0.00,,CLR,0.00,VWS V14.01,2013-01-17 14:46:00,
2013-01-17 08:50:00,18.6,8.5,30.28,West,279,5.0,14.0,64,0.00,,FEW120,0.00,VWS V14.01,2013-01-17 14:50:00,
2013-01-17 08:51:00,18.6,8.5,30.28,WSW,258,10.0,14.0,64,0.00,,CLR,0.00,VWS V14.01,2013-01-17 14:51:00,
2013-01-17 08:55:00,18.6,8.1,30.28,WNW,299,7.0,15.0,63,0.00,,FEW120,0.00,VWS V14.01,2013-01-17 14:55:00,
2013-01-17 08:56:00,18.6,8.1,30.28,WNW,299,8.0,13.0,63,0.00,,CLR,0.00,VWS V14.01,2013-01-17 14:56:00,
2013-01-17 09:00:00,18.7,8.6,30.28,WNW,282,8.0,14.0,64,0.00,,FEW120,0.00,VWS V14.01,2013-01-17 15:00:00,
2013-01-17 09:01:00,18.8,8.6,30.28,West,279,8.0,12.0,64,0.00,,CLR,0.00,VWS V14.01,2013-01-17 15:01:00,
2013-01-17 09:05:00,18.8,7.9,30.28,NW,309,8.0,15.0,62,0.00,,FEW120,0.00,VWS V14.01,2013-01-17 15:05:00,
2013-01-17 09:06:00,18.8,8.3,30.28,WNW,288,13.0,15.0,63,0.00,,CLR,0.00,VWS V14.01,2013-01-17 15:06:00,
2013-01-17 09:10:00,18.8,8.3,30.28,WNW,295,11.0,14.0,63,0.00,,FEW120,0.00,VWS V14.01,2013-01-17 15:10:00,
2013-01-17 09:11:00,18.8,7.9,30.28,NW,313,10.0,13.0,62,0.00,,CLR,0.00,VWS V14.01,2013-01-17 15:11:00,
2013-01-17 09:15:00,18.9,8.1,30.28,WNW,302,6.0,12.0,62,0.00,,FEW120,0.00,VWS V14.01,2013-01-17 15:15:00,
2013-01-17 09:16:00,19.0,8.1,30.28,NW,325,5.0,12.0,62,0.00,,CLR,0.00,VWS V14.01,2013-01-17 15:16:00,
2013-01-17 09:20:00,18.9,7.7,30.28,West,279,16.0,16.0,61,0.00,,FEW120,0.00,VWS V14.01,2013-01-17 15:20:00,
2013-01-17 09:21:00,18.9,7.7,30.28,West,276,12.0,17.0,61,0.00,,CLR,0.00,VWS V14.01,2013-01-17 15:21:00,
2013-01-17 09:25:00,19.0,7.4,30.28,WNW,292,10.0,17.0,60,0.00,,FEW120,0.00,VWS V14.01,2013-01-17 15:25:00,
2013-01-17 09:26:00,19.1,7.9,30.28,NW,314,10.0,17.0,61,0.00,,CLR,0.00,VWS V14.01,2013-01-17 15:26:00,
2013-01-17 09:30:00,19.3,7.7,30.28,West,281,10.0,17.0,60,0.00,,FEW120,0.00,VWS V14.01,2013-01-17 15:30:00,
2013-01-17 09:31:00,19.3,7.3,30.28,WNW,299,11.0,22.0,59,0.00,,CLR,0.00,VWS V14.01,2013-01-17 15:31:00,
2013-01-17 09:35:00,19.0,6.3,30.28,WNW,288,16.0,22.0,57,0.00,,FEW120,0.00,VWS V14.01,2013-01-17 15:35:00,
2013-01-17 09:36:00,19.0,6.7,30.28,WNW,300,9.0,16.0,58,0.00,,CLR,0.00,VWS V14.01,2013-01-17 15:36:00,
2013-01-17 09:40:00,19.0,6.7,30.28,WNW,302,12.0,16.0,58,0.00,,FEW120,0.00,VWS V14.01,2013-01-17 15:40:00,
2013-01-17 09:42:00,19.1,6.8,30.28,WNW,293,9.0,15.0,58,0.00,,CLR,0.00,VWS V14.01,2013-01-17 15:42:00,
2013-01-17 09:45:00,19.0,5.9,30.28,WNW,290,9.0,18.0,56,0.00,,FEW120,0.00,VWS V14.01,2013-01-17 15:45:00,
2013-01-17 09:47:00,19.0,6.3,30.28,WNW,284,6.0,16.0,57,0.00,,CLR,0.00,VWS V14.01,2013-01-17 15:47:00,
2013-01-17 09:50:00,19.3,6.6,30.28,West,268,13.0,17.0,57,0.00,,FEW120,0.00,VWS V14.01,2013-01-17 15:50:00,
2013-01-17 09:52:00,19.2,5.7,30.29,WSW,247,10.0,17.0,55,0.00,,CLR,0.00,VWS V14.01,2013-01-17 15:52:00,
2013-01-17 09:55:00,19.3,6.2,30.29,WNW,297,12.0,17.0,56,0.00,,FEW120,0.00,VWS V14.01,2013-01-17 15:55:00,
2013-01-17 09:57:00,19.3,5.8,30.29,NW,305,11.0,16.0,55,0.00,,CLR,0.00,VWS V14.01,2013-01-17 15:57:00,
2013-01-17 10:00:00,19.1,4.8,30.29,West,272,15.0,20.0,53,0.00,,FEW120,0.00,VWS V14.01,2013-01-17 16:00:00,
2013-01-17 10:02:00,19.1,4.8,30.29,WNW,282,9.0,19.0,53,0.00,,CLR,0.00,VWS V14.01,2013-01-17 16:02:00,
2013-01-17 10:05:00,19.2,4.9,30.29,WNW,290,15.0,19.0,53,0.00,,FEW120,0.00,VWS V14.01,2013-01-17 16:05:00,
2013-01-17 10:07:00,19.2,5.3,30.29,WNW,286,9.0,19.0,54,0.00,,CLR,0.00,VWS V14.01,2013-01-17 16:07:00,
2013-01-17 10:10:00,19.2,4.9,30.29,NW,311,13.0,20.0,53,0.00,,FEW120,0.00,VWS V14.01,2013-01-17 16:10:00,
2013-01-17 10:12:00,19.2,4.9,30.28,WNW,290,17.0,20.0,53,0.00,,CLR,0.00,VWS V14.01,2013-01-17 16:12:00,
2013-01-17 10:15:00,19.3,4.6,30.28,WNW,288,13.0,17.0,52,0.00,,FEW120,0.00,VWS V14.01,2013-01-17 16:15:00,
2013-01-17 10:17:00,19.3,4.6,30.28,WNW,289,10.0,18.0,52,0.00,,CLR,0.00,VWS V14.01,2013-01-17 16:17:00,
2013-01-17 10:20:00,19.3,4.6,30.28,WNW,300,16.0,20.0,52,0.00,,FEW120,0.00,VWS V14.01,2013-01-17 16:20:00,
2013-01-17 10:22:00,19.3,4.1,30.29,NNW,333,15.0,17.0,51,0.00,,CLR,0.00,VWS V14.01,2013-01-17 16:22:00,
2013-01-17 10:25:00,19.4,3.8,30.29,WNW,300,15.0,18.0,50,0.00,,FEW120,0.00,VWS V14.01,2013-01-17 16:25:00,
2013-01-17 10:27:00,19.4,4.2,30.29,NW,305,14.0,18.0,51,0.00,,CLR,0.00,VWS V14.01,2013-01-17 16:27:00,
2013-01-17 10:30:00,19.5,4.8,30.29,WNW,295,9.0,19.0,52,0.00,,FEW120,0.00,VWS V14.01,2013-01-17 16:30:00,
2013-01-17 10:32:00,19.5,4.8,30.29,WNW,292,17.0,19.0,52,0.00,,CLR,0.00,VWS V14.01,2013-01-17 16:32:00,
2013-01-17 10:35:00,19.5,3.9,30.29,WNW,298,9.0,19.0,50,0.00,,FEW120,0.00,VWS V14.01,2013-01-17 16:35:00,
2013-01-17 10:37:00,19.7,3.7,30.29,WNW,301,9.0,19.0,49,0.00,,CLR,0.00,VWS V14.01,2013-01-17 16:37:00,
2013-01-17 10:40:00,19.7,3.7,30.29,WNW,299,10.0,18.0,49,0.00,,FEW120,0.00,VWS V14.01,2013-01-17 16:40:00,
2013-01-17 10:42:00,19.7,4.1,30.29,WNW,287,9.0,17.0,50,0.00,,CLR,0.00,VWS V14.01,2013-01-17 16:42:00,
2013-01-17 10:45:00,19.8,4.6,30.29,West,274,5.0,17.0,51,0.00,,FEW120,0.00,VWS V14.01,2013-01-17 16:45:00,
2013-01-17 10:47:00,20.2,5.0,30.29,NW,313,14.0,17.0,51,0.00,,CLR,0.00,VWS V14.01,2013-01-17 16:47:00,
2013-01-17 10:50:00,20.1,3.6,30.29,NW,309,7.0,17.0,48,0.00,,FEW120,0.00,VWS V14.01,2013-01-17 16:50:00,
2013-01-17 10:52:00,20.2,4.6,30.29,West,279,10.0,17.0,50,0.00,,CLR,0.00,VWS V14.01,2013-01-17 16:52:00,
2013-01-17 10:55:00,20.1,4.5,30.29,WNW,289,17.0,18.0,50,0.00,,FEW120,0.00,VWS V14.01,2013-01-17 16:55:00,
2013-01-17 10:57:00,20.0,4.4,30.29,WNW,298,7.0,19.0,50,0.00,,CLR,0.00,VWS V14.01,2013-01-17 16:57:00,
2013-01-17 11:00:00,20.0,4.4,30.29,NW,307,12.0,14.0,50,0.00,,FEW120,0.00,VWS V14.01,2013-01-17 17:00:00,
2013-01-17 11:02:00,20.0,3.5,30.29,North,360,7.0,18.0,48,0.00,,CLR,0.00,VWS V14.01,2013-01-17 17:02:00,
2013-01-17 11:05:00,19.8,3.3,30.29,West,260,11.0,18.0,48,0.00,,,0.00,VWS V14.01,2013-01-17 17:05:00,
2013-01-17 11:07:00,20.0,4.4,30.29,WNW,283,10.0,20.0,50,0.00,,CLR,0.00,VWS V14.01,2013-01-17 17:07:00,
2013-01-17 11:10:00,20.1,4.5,30.29,WNW,294,6.0,17.0,50,0.00,,FEW120,0.00,VWS V14.01,2013-01-17 17:10:00,
2013-01-17 11:12:00,20.3,4.2,30.29,WNW,290,11.0,18.0,49,0.00,,CLR,0.00,VWS V14.01,2013-01-17 17:12:00,
2013-01-17 11:15:00,20.1,3.6,30.29,WNW,296,12.0,19.0,48,0.00,,,0.00,VWS V14.01,2013-01-17 17:15:00,
2013-01-17 11:18:00,20.0,3.9,30.29,WNW,296,12.0,18.0,49,0.00,,CLR,0.00,VWS V14.01,2013-01-17 17:18:00,
2013-01-17 11:20:00,20.1,4.0,30.29,WNW,290,10.0,16.0,49,0.00,,,0.00,VWS V14.01,2013-01-17 17:20:00,
2013-01-17 11:23:00,20.5,4.8,30.29,NW,313,10.0,15.0,50,0.00,,CLR,0.00,VWS V14.01,2013-01-17 17:23:00,
2013-01-17 11:25:00,20.4,4.3,30.29,West,279,13.0,18.0,49,0.00,,FEW120,0.00,VWS V14.01,2013-01-17 17:25:00,
2013-01-17 11:28:00,20.1,3.6,30.29,WNW,294,10.0,18.0,48,0.00,,CLR,0.00,VWS V14.01,2013-01-17 17:28:00,
2013-01-17 11:30:00,20.2,3.7,30.29,WNW,291,9.0,17.0,48,0.00,,FEW120,0.00,VWS V14.01,2013-01-17 17:30:00,
2013-01-17 11:33:00,20.3,3.8,30.29,NW,308,13.0,19.0,48,0.00,,CLR,0.00,VWS V14.01,2013-01-17 17:33:00,
2013-01-17 11:35:00,20.2,3.7,30.29,North,360,9.0,19.0,48,0.00,,,0.00,VWS V14.01,2013-01-17 17:35:00,
2013-01-17 11:38:00,20.0,3.5,30.29,North,360,15.0,20.0,48,0.00,,CLR,0.00,VWS V14.01,2013-01-17 17:38:00,
2013-01-17 11:40:00,20.2,3.7,30.29,WNW,298,8.0,15.0,48,0.00,,FEW120,0.00,VWS V14.01,2013-01-17 17:40:00,
2013-01-17 11:43:00,20.4,3.8,30.29,WNW,288,6.0,16.0,48,0.00,,CLR,0.00,VWS V14.01,2013-01-17 17:43:00,
2013-01-17 11:45:00,20.5,4.4,30.29,West,277,6.0,17.0,49,0.00,,FEW120,0.00,VWS V14.01,2013-01-17 17:45:00,
2013-01-17 11:48:00,20.4,3.4,30.29,West,272,19.0,19.0,47,0.00,,CLR,0.00,VWS V14.01,2013-01-17 17:48:00,
2013-01-17 11:50:00,20.3,2.8,30.28,WSW,254,14.0,22.0,46,0.00,,FEW120,0.00,VWS V14.01,2013-01-17 17:50:00,
2013-01-17 11:53:00,20.1,2.7,30.28,West,271,11.0,22.0,46,0.00,,CLR,0.00,VWS V14.01,2013-01-17 17:53:00,
2013-01-17 11:55:00,20.2,2.7,30.29,West,261,10.0,22.0,46,0.00,,FEW120,0.00,VWS V14.01,2013-01-17 17:55:00,
2013-01-17 11:58:00,20.2,2.3,30.28,WNW,289,14.0,19.0,45,0.00,,CLR,0.00,VWS V14.01,2013-01-17 17:58:00,
2013-01-17 12:00:00,20.2,2.7,30.29,West,267,10.0,19.0,46,0.00,,FEW120,0.00,VWS V14.01,2013-01-17 18:00:00,
2013-01-17 12:03:00,20.2,3.2,30.29,WNW,303,8.0,21.0,47,0.00,,FEW250,0.00,VWS V14.01,2013-01-17 18:03:00,
2013-01-17 12:05:00,20.4,3.8,30.29,West,279,11.0,19.0,48,0.00,,FEW120,0.00,VWS V14.01,2013-01-17 18:05:00,
2013-01-17 12:08:00,20.7,4.6,30.29,West,275,11.0,14.0,49,0.00,,FEW250,0.00,VWS V14.01,2013-01-17 18:08:00,
2013-01-17 12:10:00,20.7,4.1,30.29,NW,312,12.0,16.0,48,0.00,,FEW120,0.00,VWS V14.01,2013-01-17 18:10:00,
2013-01-17 12:13:00,20.4,3.4,30.29,NW,314,6.0,19.0,47,0.00,,FEW250,0.00,VWS V14.01,2013-01-17 18:13:00,
2013-01-17 12:15:00,20.5,4.4,30.29,WNW,285,12.0,14.0,49,0.00,,FEW120,0.00,VWS V14.01,2013-01-17 18:15:00,
2013-01-17 12:18:00,20.4,3.4,30.28,NW,313,13.0,17.0,47,0.00,,FEW250,0.00,VWS V14.01,2013-01-17 18:18:00,
2013-01-17 12:20:00,20.3,3.8,30.28,North,360,11.0,17.0,48,0.00,,FEW120,0.00,VWS V14.01,2013-01-17 18:20:00,
2013-01-17 12:23:00,20.6,4.5,30.28,WNW,301,8.0,14.0,49,0.00,,FEW250,0.00,VWS V14.01,2013-01-17 18:23:00,
2013-01-17 12:25:00,20.7,4.6,30.28,NNW,327,7.0,14.0,49,0.00,,FEW120,0.00,VWS V14.01,2013-01-17 18:25:00,
2013-01-17 12:28:00,21.1,5.4,30.28,NW,321,8.0,13.0,50,0.00,,FEW250,0.00,VWS V14.01,2013-01-17 18:28:00,
2013-01-17 12:30:00,21.2,5.5,30.28,West,269,16.0,17.0,50,0.00,,FEW120,0.00,VWS V14.01,2013-01-17 18:30:00,
2013-01-17 12:33:00,20.9,4.8,30.28,WNW,296,6.0,16.0,49,0.00,,FEW250,0.00,VWS V14.01,2013-01-17 18:33:00,
2013-01-17 12:35:00,21.0,5.3,30.29,NW,305,4.0,16.0,50,0.00,,FEW120,0.00,VWS V14.01,2013-01-17 18:35:00,
2013-01-17 12:39:00,21.0,5.3,30.28,North,360,14.0,22.0,50,0.00,,FEW250,0.00,VWS V14.01,2013-01-17 18:39:00,
2013-01-17 12:40:00,20.9,4.8,30.28,WNW,292,10.0,22.0,49,0.00,,FEW120,0.00,VWS V14.01,2013-01-17 18:40:00,
2013-01-17 12:44:00,20.8,5.1,30.28,NNW,335,13.0,16.0,50,0.00,,FEW250,0.00,VWS V14.01,2013-01-17 18:44:00,
2013-01-17 12:45:00,20.8,5.1,30.28,NNW,331,7.0,16.0,50,0.00,,FEW120,0.00,VWS V14.01,2013-01-17 18:45:00,
2013-01-17 12:49:00,21.0,5.7,30.28,WNW,300,9.0,18.0,51,0.00,,FEW250,0.00,VWS V14.01,2013-01-17 18:49:00,
2013-01-17 12:50:00,21.1,5.8,30.28,NNW,340,11.0,18.0,51,0.00,,FEW120,0.00,VWS V14.01,2013-01-17 18:50:00,
2013-01-17 12:54:00,21.3,6.0,30.28,WNW,291,13.0,19.0,51,0.00,,FEW250,0.00,VWS V14.01,2013-01-17 18:54:00,
2013-01-17 12:55:00,21.3,6.0,30.28,WNW,292,11.0,16.0,51,0.00,,FEW120,0.00,VWS V14.01,2013-01-17 18:55:00,
2013-01-17 12:59:00,21.1,5.8,30.28,NW,316,9.0,14.0,51,0.00,,FEW250,0.00,VWS V14.01,2013-01-17 18:59:00,
2013-01-17 13:00:00,21.1,5.8,30.28,NW,304,11.0,14.0,51,0.00,,FEW120,0.00,VWS V14.01,2013-01-17 19:00:00,
2013-01-17 13:04:00,21.3,6.0,30.28,NNE,13,6.0,17.0,51,0.00,,FEW250,0.00,VWS V14.01,2013-01-17 19:04:00,
2013-01-17 13:05:00,21.4,6.1,30.28,WNW,302,5.0,17.0,51,0.00,,FEW120,0.00,VWS V14.01,2013-01-17 19:05:00,
2013-01-17 13:09:00,21.6,6.3,30.28,West,272,18.0,21.0,51,0.00,,FEW250,0.00,VWS V14.01,2013-01-17 19:09:00,
2013-01-17 13:10:00,21.5,6.2,30.28,NW,324,11.0,21.0,51,0.00,,FEW120,0.00,VWS V14.01,2013-01-17 19:10:00,
2013-01-17 13:14:00,21.6,6.3,30.28,West,281,10.0,16.0,51,0.00,,FEW250,0.00,VWS V14.01,2013-01-17 19:14:00,
2013-01-17 13:15:00,21.6,6.3,30.28,West,273,13.0,16.0,51,0.00,,FEW120,0.00,VWS V14.01,2013-01-17 19:15:00,
2013-01-17 13:19:00,21.1,5.4,30.28,WNW,292,8.0,16.0,50,0.00,,FEW250,0.00,VWS V14.01,2013-01-17 19:19:00,
2013-01-17 13:20:00,21.1,5.4,30.28,NW,308,11.0,16.0,50,0.00,,FEW120,0.00,VWS V14.01,2013-01-17 19:20:00,
2013-01-17 13:24:00,21.0,5.7,30.27,WNW,302,9.0,17.0,51,0.00,,FEW250,0.00,VWS V14.01,2013-01-17 19:24:00,
2013-01-17 13:25:00,21.0,5.7,30.27,NW,306,12.0,17.0,51,0.00,,FEW120,0.00,VWS V14.01,2013-01-17 19:25:00,
2013-01-17 13:29:00,21.5,6.6,30.27,West,277,10.0,12.0,52,0.00,,FEW250,0.00,VWS V14.01,2013-01-17 19:29:00,
2013-01-17 13:30:00,21.5,6.6,30.27,WNW,287,9.0,12.0,52,0.00,,FEW120,0.00,VWS V14.01,2013-01-17 19:30:00,
2013-01-17 13:34:00,22.0,7.1,30.27,WSW,246,3.0,14.0,52,0.00,,FEW250,0.00,VWS V14.01,2013-01-17 19:34:00,
2013-01-17 13:35:00,22.0,7.1,30.26,WNW,286,7.0,14.0,52,0.00,,FEW120,0.00,VWS V14.01,2013-01-17 19:35:00,
2013-01-17 13:39:00,21.7,6.4,30.26,West,263,13.0,14.0,51,0.00,,FEW250,0.00,VWS V14.01,2013-01-17 19:39:00,
2013-01-17 13:40:00,21.7,6.4,30.26,WSW,257,13.0,15.0,51,0.00,,FEW120,0.00,VWS V14.01,2013-01-17 19:40:00,
2013-01-17 13:44:00,21.9,6.6,30.26,West,271,8.0,13.0,51,0.00,,FEW250,0.00,VWS V14.01,2013-01-17 19:44:00,
2013-01-17 13:45:00,21.9,6.6,30.26,WNW,285,5.0,13.0,51,0.00,,FEW120,0.00,VWS V14.01,2013-01-17 19:45:00,
2013-01-17 13:49:00,21.6,5.8,30.26,WSW,250,8.0,18.0,50,0.00,,FEW250,0.00,VWS V14.01,2013-01-17 19:49:00,
2013-01-17 13:50:00,21.6,5.8,30.26,WSW,250,8.0,18.0,50,0.00,,FEW120,0.00,VWS V14.01,2013-01-17 19:50:00,
2013-01-17 13:54:00,21.6,6.3,30.26,WNW,298,7.0,15.0,51,0.00,,FEW250,0.00,VWS V14.01,2013-01-17 19:54:00,
2013-01-17 13:55:00,21.6,6.3,30.26,WNW,298,7.0,15.0,51,0.00,,FEW120,0.00,VWS V14.01,2013-01-17 19:55:00,
2013-01-17 13:59:00,21.9,6.6,30.26,SSE,156,5.0,13.0,51,0.00,,FEW250,0.00,VWS V14.01,2013-01-17 19:59:00,
2013-01-17 14:00:00,21.9,6.6,30.26,SSE,156,5.0,13.0,51,0.00,,FEW120,0.00,VWS V14.01,2013-01-17 20:00:00,
2013-01-17 14:05:00,22.3,6.5,30.26,West,268,6.0,16.0,50,0.00,,CLR,0.00,VWS V14.01,2013-01-17 20:05:00,
2013-01-17 14:10:00,22.6,6.8,30.26,West,266,5.0,15.0,50,0.00,,CLR,0.00,VWS V14.01,2013-01-17 20:10:00,
2013-01-17 14:15:00,22.8,7.4,30.26,West,269,6.0,13.0,51,0.00,,CLR,0.00,VWS V14.01,2013-01-17 20:15:00,
2013-01-17 14:20:00,22.6,7.2,30.26,West,265,10.0,14.0,51,0.00,,CLR,0.00,VWS V14.01,2013-01-17 20:20:00,
2013-01-17 14:25:00,22.6,7.2,30.26,West,279,10.0,15.0,51,0.00,,CLR,0.00,VWS V14.01,2013-01-17 20:25:00,
2013-01-17 14:30:00,22.6,7.2,30.26,West,277,13.0,15.0,51,0.00,,CLR,0.00,VWS V14.01,2013-01-17 20:30:00,
2013-01-17 14:35:00,22.9,7.9,30.26,WNW,289,7.0,15.0,52,0.00,,CLR,0.00,VWS V14.01,2013-01-17 20:35:00,
2013-01-17 14:40:00,22.9,7.5,30.25,WNW,284,7.0,13.0,51,0.00,,CLR,0.00,VWS V14.01,2013-01-17 20:40:00,
2013-01-17 14:45:00,23.1,8.1,30.26,West,267,11.0,14.0,52,0.00,,CLR,0.00,VWS V14.01,2013-01-17 20:45:00,
2013-01-17 14:50:00,23.1,7.2,30.26,West,261,10.0,16.0,50,0.00,,CLR,0.00,VWS V14.01,2013-01-17 20:50:00,
2013-01-17 14:55:00,23.2,7.3,30.26,WNW,286,2.0,16.0,50,0.00,,CLR,0.00,VWS V14.01,2013-01-17 20:55:00,
2013-01-17 15:00:00,23.3,7.4,30.26,WNW,296,15.0,20.0,50,0.00,,CLR,0.00,VWS V14.01,2013-01-17 21:00:00,
2013-01-17 15:05:00,23.0,7.1,30.26,WNW,299,10.0,16.0,50,0.00,,CLR,0.00,VWS V14.01,2013-01-17 21:05:00,
2013-01-17 15:10:00,23.0,7.6,30.27,West,274,9.0,18.0,51,0.00,,CLR,0.00,VWS V14.01,2013-01-17 21:10:00,
2013-01-17 15:15:00,23.1,7.7,30.27,WNW,296,14.0,20.0,51,0.00,,CLR,0.00,VWS V14.01,2013-01-17 21:15:00,
2013-01-17 15:20:00,22.9,7.5,30.26,West,271,13.0,22.0,51,0.00,,CLR,0.00,VWS V14.01,2013-01-17 21:20:00,
2013-01-17 15:25:00,22.7,7.7,30.26,West,269,10.0,16.0,52,0.00,,CLR,0.00,VWS V14.01,2013-01-17 21:25:00,
2013-01-17 15:30:00,22.8,7.4,30.26,WSW,257,15.0,17.0,51,0.00,,FEW120,0.00,VWS V14.01,2013-01-17 21:30:00,
2013-01-17 15:31:00,22.7,7.3,30.26,WSW,249,13.0,21.0,51,0.00,,CLR,0.00,VWS V14.01,2013-01-17 21:31:00,
2013-01-17 15:35:00,22.8,7.8,30.26,WNW,296,12.0,17.0,52,0.00,,FEW120,0.00,VWS V14.01,2013-01-17 21:35:00,
2013-01-17 15:36:00,22.7,7.3,30.26,North,360,8.0,17.0,51,0.00,,CLR,0.00,VWS V14.01,2013-01-17 21:36:00,
2013-01-17 15:40:00,22.7,7.3,30.26,WNW,291,8.0,17.0,51,0.00,,FEW120,0.00,VWS V14.01,2013-01-17 21:40:00,
2013-01-17 15:41:00,22.7,7.3,30.26,WNW,291,8.0,17.0,51,0.00,,CLR,0.00,VWS V14.01,2013-01-17 21:41:00,
2013-01-17 15:45:00,22.8,7.8,30.27,West,263,9.0,14.0,52,0.00,,FEW120,0.00,VWS V14.01,2013-01-17 21:45:00,
2013-01-17 15:46:00,22.8,7.8,30.26,WNW,288,11.0,12.0,52,0.00,,CLR,0.00,VWS V14.01,2013-01-17 21:46:00,
2013-01-17 15:50:00,22.7,7.7,30.27,West,271,8.0,14.0,52,0.00,,FEW120,0.00,VWS V14.01,2013-01-17 21:50:00,
2013-01-17 15:51:00,22.7,7.7,30.27,West,271,8.0,14.0,52,0.00,,CLR,0.00,VWS V14.01,2013-01-17 21:51:00,
2013-01-17 15:55:00,22.9,7.9,30.26,West,277,5.0,12.0,52,0.00,,FEW120,0.00,VWS V14.01,2013-01-17 21:55:00,
2013-01-17 15:56:00,22.9,7.9,30.27,WSW,257,10.0,12.0,52,0.00,,CLR,0.00,VWS V14.01,2013-01-17 21:56:00,
2013-01-17 16:00:00,22.9,8.3,30.27,West,263,7.0,10.0,53,0.00,,FEW120,0.00,VWS V14.01,2013-01-17 22:00:00,
2013-01-17 16:01:00,22.9,8.3,30.27,WNW,288,8.0,10.0,53,0.00,,FEW035,0.00,VWS V14.01,2013-01-17 22:01:00,
2013-01-17 16:05:00,22.9,8.3,30.27,West,271,5.0,10.0,53,0.00,,FEW120,0.00,VWS V14.01,2013-01-17 22:05:00,
2013-01-17 16:06:00,23.0,8.4,30.27,West,281,5.0,10.0,53,0.00,,FEW035,0.00,VWS V14.01,2013-01-17 22:06:00,
2013-01-17 16:10:00,23.0,8.9,30.27,WNW,286,6.0,12.0,54,0.00,,FEW120,0.00,VWS V14.01,2013-01-17 22:10:00,
2013-01-17 16:11:00,22.9,8.8,30.27,WNW,303,10.0,12.0,54,0.00,,FEW035,0.00,VWS V14.01,2013-01-17 22:11:00,
2013-01-17 16:15:00,22.8,8.7,30.27,WNW,302,8.0,12.0,54,0.00,,FEW120,0.00,VWS V14.01,2013-01-17 22:15:00,
2013-01-17 16:16:00,22.7,8.6,30.28,SW,234,3.0,12.0,54,0.00,,FEW035,0.00,VWS V14.01,2013-01-17 22:16:00,
2013-01-17 16:20:00,22.8,8.7,30.28,NW,314,4.0,12.0,54,0.00,,FEW120,0.00,VWS V14.01,2013-01-17 22:20:00,
2013-01-17 16:22:00,22.6,8.5,30.28,WNW,292,7.0,14.0,54,0.00,,FEW035,0.00,VWS V14.01,2013-01-17 22:22:00,
2013-01-17 16:25:00,22.6,8.5,30.28,WNW,292,9.0,14.0,54,0.00,,FEW120,0.00,VWS V14.01,2013-01-17 22:25:00,
2013-01-17 16:27:00,22.6,8.9,30.28,West,273,3.0,12.0,55,0.00,,FEW035,0.00,VWS V14.01,2013-01-17 22:27:00,
2013-01-17 16:30:00,22.6,8.9,30.28,West,269,2.0,8.0,55,0.00,,FEW120,0.00,VWS V14.01,2013-01-17 22:30:00,
2013-01-17 16:32:00,22.6,8.9,30.28,WNW,282,7.0,10.0,55,0.00,,FEW035,0.00,VWS V14.01,2013-01-17 22:32:00,
2013-01-17 16:35:00,22.5,8.8,30.29,WNW,294,8.0,10.0,55,0.00,,FEW120,0.00,VWS V14.01,2013-01-17 22:35:00,
2013-01-17 16:37:00,22.4,8.7,30.28,West,272,3.0,9.0,55,0.00,,FEW035,0.00,VWS V14.01,2013-01-17 22:37:00,
2013-01-17 16:40:00,22.3,8.6,30.29,WNW,286,4.0,8.0,55,0.00,,FEW120,0.00,VWS V14.01,2013-01-17 22:40:00,
2013-01-17 16:42:00,22.3,9.0,30.28,West,277,5.0,8.0,56,0.00,,FEW035,0.00,VWS V14.01,2013-01-17 22:42:00,
2013-01-17 16:45:00,22.2,8.5,30.29,West,275,6.0,8.0,55,0.00,,FEW120,0.00,VWS V14.01,2013-01-17 22:45:00,
2013-01-17 16:47:00,22.1,8.4,30.29,West,260,5.0,9.0,55,0.00,,FEW035,0.00,VWS V14.01,2013-01-17 22:47:00,
2013-01-17 16:50:00,22.0,8.7,30.29,WSW,258,6.0,11.0,56,0.00,,FEW120,0.00,VWS V14.01,2013-01-17 22:50:00,
2013-01-17 16:52:00,21.9,8.6,30.29,WNW,290,6.0,10.0,56,0.00,,FEW035,0.00,VWS V14.01,2013-01-17 22:52:00,
2013-01-17 16:55:00,21.9,8.6,30.29,West,268,7.0,10.0,56,0.00,,,0.00,VWS V14.01,2013-01-17 22:55:00,
2013-01-17 16:57:00,21.8,8.5,30.29,West,275,4.0,10.0,56,0.00,,FEW035,0.00,VWS V14.01,2013-01-17 22:57:00,
2013-01-17 17:00:00,21.8,8.9,30.29,West,265,5.0,8.0,57,0.00,,FEW120,0.00,VWS V14.01,2013-01-17 23:00:00,
2013-01-17 17:02:00,21.8,8.9,30.29,West,266,6.0,8.0,57,0.00,,FEW035,0.00,VWS V14.01,2013-01-17 23:02:00,
2013-01-17 17:05:00,21.6,8.7,30.29,West,265,5.0,8.0,57,0.00,,FEW120,0.00,VWS V14.01,2013-01-17 23:05:00,
2013-01-17 17:07:00,21.6,8.7,30.29,West,263,4.0,8.0,57,0.00,,FEW035,0.00,VWS V14.01,2013-01-17 23:07:00,
2013-01-17 17:10:00,21.6,8.7,30.30,West,264,4.0,8.0,57,0.00,,FEW120,0.00,VWS V14.01,2013-01-17 23:10:00,
2013-01-17 17:12:00,21.6,9.1,30.30,West,271,1.0,9.0,58,0.00,,FEW035,0.00,VWS V14.01,2013-01-17 23:12:00,
2013-01-17 17:15:00,21.5,9.0,30.30,West,262,5.0,8.0,58,0.00,,,0.00,VWS V14.01,2013-01-17 23:15:00,
2013-01-17 17:17:00,21.5,9.0,30.30,West,262,4.0,7.0,58,0.00,,FEW035,0.00,VWS V14.01,2013-01-17 23:17:00,
2013-01-17 17:20:00,21.4,8.9,30.30,West,272,4.0,6.0,58,0.00,,FEW120,0.00,VWS V14.01,2013-01-17 23:20:00,
2013-01-17 17:22:00,21.3,8.8,30.30,West,271,3.0,6.0,58,0.00,,FEW035,0.00,VWS V14.01,2013-01-17 23:22:00,
2013-01-17 17:25:00,21.3,9.2,30.30,West,271,0.0,6.0,59,0.00,,FEW120,0.00,VWS V14.01,2013-01-17 23:25:00,
2013-01-17 17:27:00,21.3,9.2,30.31,West,271,1.0,4.0,59,0.00,,FEW035,0.00,VWS V14.01,2013-01-17 23:27:00,
2013-01-17 17:30:00,21.2,9.1,30.30,West,271,2.0,4.0,59,0.00,,FEW120,0.00,VWS V14.01,2013-01-17 23:30:00,
2013-01-17 17:32:00,21.2,9.1,30.30,West,271,1.0,4.0,59,0.00,,FEW035,0.00,VWS V14.01,2013-01-17 23:32:00,
2013-01-17 17:35:00,21.2,9.1,30.30,West,271,0.0,4.0,59,0.00,,FEW120,0.00,VWS V14.01,2013-01-17 23:35:00,
2013-01-17 17:37:00,21.2,9.5,30.30,West,271,0.0,3.0,60,0.00,,FEW035,0.00,VWS V14.01,2013-01-17 23:37:00,
2013-01-17 17:40:00,21.2,9.5,30.30,West,271,0.0,3.0,60,0.00,,FEW120,0.00,VWS V14.01,2013-01-17 23:40:00,
2013-01-17 17:43:00,21.1,9.4,30.30,West,271,1.0,3.0,60,0.00,,FEW035,0.00,VWS V14.01,2013-01-17 23:43:00,
2013-01-17 17:45:00,21.1,9.4,30.30,West,271,0.0,2.0,60,0.00,,FEW120,0.00,VWS V14.01,2013-01-17 23:45:00,
2013-01-17 17:48:00,21.0,8.9,30.30,West,271,2.0,2.0,59,0.00,,FEW035,0.00,VWS V14.01,2013-01-17 23:48:00,
2013-01-17 17:50:00,21.0,9.3,30.30,West,270,0.0,4.0,60,0.00,,FEW120,0.00,VWS V14.01,2013-01-17 23:50:00,
2013-01-17 17:53:00,21.0,9.3,30.31,West,270,0.0,3.0,60,0.00,,FEW035,0.00,VWS V14.01,2013-01-17 23:53:00,
2013-01-17 17:55:00,20.9,9.2,30.31,West,270,3.0,3.0,60,0.00,,FEW120,0.00,VWS V14.01,2013-01-17 23:55:00,
2013-01-17 17:58:00,20.9,9.2,30.30,West,270,0.0,3.0,60,0.00,,FEW035,0.00,VWS V14.01,2013-01-17 23:58:00,
2013-01-17 18:00:00,20.9,9.2,30.30,West,270,0.0,2.0,60,0.00,,FEW120,0.00,VWS V14.01,2013-01-18 00:00:00,
2013-01-17 18:03:00,20.8,9.1,30.31,West,270,0.0,0.0,60,0.00,,FEW035,0.00,VWS V14.01,2013-01-18 00:03:00,
2013-01-17 18:05:00,20.8,9.1,30.31,West,270,0.0,0.0,60,0.00,,FEW120,0.00,VWS V14.01,2013-01-18 00:05:00,
2013-01-17 18:08:00,20.8,9.5,30.30,West,270,0.0,0.0,61,0.00,,FEW035,0.00,VWS V14.01,2013-01-18 00:08:00,
2013-01-17 18:10:00,20.8,9.5,30.31,West,270,0.0,0.0,61,0.00,,FEW120,0.00,VWS V14.01,2013-01-18 00:10:00,
2013-01-17 18:13:00,20.8,9.5,30.31,West,270,0.0,0.0,61,0.00,,FEW035,0.00,VWS V14.01,2013-01-18 00:13:00,
2013-01-17 18:15:00,20.8,9.5,30.31,West,270,0.0,0.0,61,0.00,,FEW120,0.00,VWS V14.01,2013-01-18 00:15:00,
2013-01-17 18:18:00,20.9,9.6,30.31,West,270,0.0,0.0,61,0.00,,FEW035,0.00,VWS V14.01,2013-01-18 00:18:00,
2013-01-17 18:20:00,20.9,9.6,30.31,West,270,0.0,0.0,61,0.00,,FEW120,0.00,VWS V14.01,2013-01-18 00:20:00,
2013-01-17 18:23:00,20.8,9.5,30.31,West,270,0.0,0.0,61,0.00,,FEW035,0.00,VWS V14.01,2013-01-18 00:23:00,
2013-01-17 18:25:00,20.8,9.5,30.31,West,270,0.0,0.0,61,0.00,,FEW120,0.00,VWS V14.01,2013-01-18 00:25:00,
2013-01-17 18:28:00,20.8,9.9,30.31,West,270,0.0,0.0,62,0.00,,FEW035,0.00,VWS V14.01,2013-01-18 00:28:00,
2013-01-17 18:30:00,20.8,9.9,30.31,West,270,0.0,0.0,62,0.00,,FEW120,0.00,VWS V14.01,2013-01-18 00:30:00,
2013-01-17 18:33:00,20.7,9.8,30.31,West,270,0.0,0.0,62,0.00,,FEW035,0.00,VWS V14.01,2013-01-18 00:33:00,
2013-01-17 18:35:00,20.7,9.8,30.31,West,270,0.0,0.0,62,0.00,,FEW120,0.00,VWS V14.01,2013-01-18 00:35:00,
2013-01-17 18:38:00,20.7,9.8,30.31,West,270,0.0,0.0,62,0.00,,FEW035,0.00,VWS V14.01,2013-01-18 00:38:00,
2013-01-17 18:40:00,20.7,9.8,30.32,West,270,0.0,0.0,62,0.00,,FEW120,0.00,VWS V14.01,2013-01-18 00:40:00,
2013-01-17 18:43:00,20.6,9.7,30.32,West,270,0.0,0.0,62,0.00,,FEW035,0.00,VWS V14.01,2013-01-18 00:43:00,
2013-01-17 18:45:00,20.6,9.7,30.32,West,270,0.0,0.0,62,0.00,,FEW120,0.00,VWS V14.01,2013-01-18 00:45:00,
2013-01-17 18:48:00,20.5,9.6,30.32,West,270,0.0,0.0,62,0.00,,FEW035,0.00,VWS V14.01,2013-01-18 00:48:00,
2013-01-17 18:50:00,20.5,9.9,30.32,West,270,0.0,0.0,63,0.00,,FEW120,0.00,VWS V14.01,2013-01-18 00:50:00,
2013-01-17 18:53:00,20.4,9.8,30.32,West,270,0.0,0.0,63,0.00,,FEW035,0.00,VWS V14.01,2013-01-18 00:53:00,
2013-01-17 18:55:00,20.4,9.8,30.32,West,270,0.0,0.0,63,0.00,,FEW120,0.00,VWS V14.01,2013-01-18 00:55:00,
2013-01-17 18:58:00,20.3,9.7,30.32,West,270,0.0,0.0,63,0.00,,FEW035,0.00,VWS V14.01,2013-01-18 00:58:00,
2013-01-17 19:00:00,20.3,9.7,30.32,West,270,0.0,0.0,63,0.00,,FEW120,0.00,VWS V14.01,2013-01-18 01:00:00,
2013-01-17 19:03:00,20.2,10.0,30.32,West,270,0.0,0.0,64,0.00,,CLR,0.00,VWS V14.01,2013-01-18 01:03:00,
2013-01-17 19:05:00,20.2,10.0,30.32,West,270,0.0,0.0,64,0.00,,FEW120,0.00,VWS V14.01,2013-01-18 01:05:00,
2013-01-17 19:08:00,20.0,9.8,30.32,West,270,0.0,0.0,64,0.00,,CLR,0.00,VWS V14.01,2013-01-18 01:08:00,
2013-01-17 19:10:00,20.0,9.8,30.32,West,270,0.0,0.0,64,0.00,,FEW120,0.00,VWS V14.01,2013-01-18 01:10:00,
2013-01-17 19:14:00,19.9,10.1,30.32,West,270,0.0,0.0,65,0.00,,CLR,0.00,VWS V14.01,2013-01-18 01:14:00,
2013-01-17 19:15:00,19.8,9.6,30.33,West,270,0.0,0.0,64,0.00,,FEW120,0.00,VWS V14.01,2013-01-18 01:15:00,
2013-01-17 19:19:00,19.7,9.5,30.33,West,270,0.0,0.0,64,0.00,,CLR,0.00,VWS V14.01,2013-01-18 01:19:00,
2013-01-17 19:20:00,19.6,9.8,30.33,West,270,0.0,0.0,65,0.00,,FEW120,0.00,VWS V14.01,2013-01-18 01:20:00,
2013-01-17 19:24:00,19.4,9.6,30.33,West,270,0.0,0.0,65,0.00,,CLR,0.00,VWS V14.01,2013-01-18 01:24:00,
2013-01-17 19:25:00,19.3,9.5,30.33,West,270,0.0,0.0,65,0.00,,FEW120,0.00,VWS V14.01,2013-01-18 01:25:00,
2013-01-17 19:29:00,19.1,9.6,30.33,West,270,0.0,0.0,66,0.00,,CLR,0.00,VWS V14.01,2013-01-18 01:29:00,
2013-01-17 19:30:00,19.1,10.0,30.33,West,270,0.0,0.0,67,0.00,,FEW120,0.00,VWS V14.01,2013-01-18 01:30:00,
2013-01-17 19:34:00,19.1,10.0,30.33,West,270,0.0,0.0,67,0.00,,CLR,0.00,VWS V14.01,2013-01-18 01:34:00,
2013-01-17 19:35:00,19.0,9.9,30.33,West,270,0.0,0.0,67,0.00,,FEW120,0.00,VWS V14.01,2013-01-18 01:35:00,
2013-01-17 19:39:00,18.9,10.1,30.33,West,270,0.0,0.0,68,0.00,,CLR,0.00,VWS V14.01,2013-01-18 01:39:00,
2013-01-17 19:40:00,18.8,10.0,30.33,West,270,0.0,0.0,68,0.00,,FEW120,0.00,VWS V14.01,2013-01-18 01:40:00,
2013-01-17 19:44:00,18.5,10.0,30.33,West,270,0.0,0.0,69,0.00,,CLR,0.00,VWS V14.01,2013-01-18 01:44:00,
2013-01-17 19:45:00,18.5,9.7,30.33,West,270,0.0,0.0,68,0.00,,FEW120,0.00,VWS V14.01,2013-01-18 01:45:00,
2013-01-17 19:49:00,18.4,9.6,30.33,West,270,0.0,0.0,68,0.00,,CLR,0.00,VWS V14.01,2013-01-18 01:49:00,
2013-01-17 19:50:00,18.4,9.6,30.33,West,270,0.0,0.0,68,0.00,,FEW120,0.00,VWS V14.01,2013-01-18 01:50:00,
2013-01-17 19:54:00,18.1,9.7,30.34,West,270,0.0,0.0,69,0.00,,CLR,0.00,VWS V14.01,2013-01-18 01:54:00,
2013-01-17 19:55:00,18.1,9.7,30.34,West,270,0.0,0.0,69,0.00,,FEW120,0.00,VWS V14.01,2013-01-18 01:55:00,
2013-01-17 19:59:00,17.9,9.8,30.34,West,270,0.0,0.0,70,0.00,,CLR,0.00,VWS V14.01,2013-01-18 01:59:00,
2013-01-17 20:00:00,17.9,9.8,30.34,West,270,0.0,0.0,70,0.00,,FEW120,0.00,VWS V14.01,2013-01-18 02:00:00,
2013-01-17 20:04:00,17.8,10.0,30.34,West,270,0.0,0.0,71,0.00,,CLR,0.00,VWS V14.01,2013-01-18 02:04:00,
2013-01-17 20:05:00,17.8,10.0,30.34,West,270,0.0,0.0,71,0.00,,FEW120,0.00,VWS V14.01,2013-01-18 02:05:00,
2013-01-17 20:09:00,17.7,9.9,30.34,West,270,0.0,0.0,71,0.00,,CLR,0.00,VWS V14.01,2013-01-18 02:09:00,
2013-01-17 20:10:00,17.8,10.0,30.34,West,270,0.0,0.0,71,0.00,,FEW120,0.00,VWS V14.01,2013-01-18 02:10:00,
2013-01-17 20:14:00,17.8,10.0,30.34,West,270,0.0,0.0,71,0.00,,CLR,0.00,VWS V14.01,2013-01-18 02:14:00,
2013-01-17 20:15:00,17.9,10.1,30.34,West,270,0.0,0.0,71,0.00,,FEW120,0.00,VWS V14.01,2013-01-18 02:15:00,
2013-01-17 20:19:00,18.0,10.2,30.34,West,270,0.0,0.0,71,0.00,,CLR,0.00,VWS V14.01,2013-01-18 02:19:00,
2013-01-17 20:20:00,18.0,10.2,30.34,West,270,0.0,0.0,71,0.00,,FEW120,0.00,VWS V14.01,2013-01-18 02:20:00,
2013-01-17 20:24:00,18.3,10.2,30.34,West,270,0.0,0.0,70,0.00,,CLR,0.00,VWS V14.01,2013-01-18 02:24:00,
2013-01-17 20:25:00,18.3,9.9,30.34,West,270,0.0,0.0,69,0.00,,FEW120,0.00,VWS V14.01,2013-01-18 02:25:00,
2013-01-17 20:29:00,18.4,9.9,30.34,West,270,0.0,0.0,69,0.00,,CLR,0.00,VWS V14.01,2013-01-18 02:29:00,
2013-01-17 20:30:00,18.4,9.9,30.34,West,270,0.0,0.0,69,0.00,,FEW120,0.00,VWS V14.01,2013-01-18 02:30:00,
2013-01-17 20:34:00,18.2,9.8,30.34,West,270,0.0,0.0,69,0.00,,CLR,0.00,VWS V14.01,2013-01-18 02:34:00,
2013-01-17 20:35:00,18.2,9.8,30.34,West,270,0.0,0.0,69,0.00,,FEW120,0.00,VWS V14.01,2013-01-18 02:35:00,
2013-01-17 20:39:00,17.9,9.8,30.35,West,270,0.0,0.0,70,0.00,,CLR,0.00,VWS V14.01,2013-01-18 02:39:00,
2013-01-17 20:40:00,17.9,9.8,30.35,West,270,0.0,0.0,70,0.00,,FEW120,0.00,VWS V14.01,2013-01-18 02:40:00,
2013-01-17 20:44:00,17.5,9.7,30.35,West,270,0.0,0.0,71,0.00,,CLR,0.00,VWS V14.01,2013-01-18 02:44:00,
2013-01-17 20:45:00,17.5,9.7,30.35,West,270,0.0,0.0,71,0.00,,FEW120,0.00,VWS V14.01,2013-01-18 02:45:00,
2013-01-17 20:49:00,17.1,9.6,30.35,West,270,0.0,0.0,72,0.00,,CLR,0.00,VWS V14.01,2013-01-18 02:49:00,
2013-01-17 20:50:00,17.1,9.6,30.35,West,270,0.0,0.0,72,0.00,,FEW120,0.00,VWS V14.01,2013-01-18 02:50:00,
2013-01-17 20:54:00,16.9,9.8,30.35,West,270,0.0,0.0,73,0.00,,CLR,0.00,VWS V14.01,2013-01-18 02:54:00,
2013-01-17 20:55:00,16.9,9.8,30.35,West,270,0.0,0.0,73,0.00,,FEW120,0.00,VWS V14.01,2013-01-18 02:55:00,
2013-01-17 20:59:00,16.7,9.9,30.35,West,269,0.0,0.0,74,0.00,,CLR,0.00,VWS V14.01,2013-01-18 02:59:00,
2013-01-17 21:00:00,16.7,9.9,30.35,West,269,0.0,0.0,74,0.00,,FEW120,0.00,VWS V14.01,2013-01-18 03:00:00,
2013-01-17 21:04:00,16.4,9.6,30.35,West,270,0.0,0.0,74,0.00,,CLR,0.00,VWS V14.01,2013-01-18 03:04:00,
2013-01-17 21:05:00,16.4,9.6,30.35,West,270,0.0,0.0,74,0.00,,FEW120,0.00,VWS V14.01,2013-01-18 03:05:00,
2013-01-17 21:09:00,16.3,9.8,30.35,West,270,0.0,0.0,75,0.00,,CLR,0.00,VWS V14.01,2013-01-18 03:09:00,
2013-01-17 21:10:00,16.3,9.8,30.35,West,270,0.0,0.0,75,0.00,,FEW120,0.00,VWS V14.01,2013-01-18 03:10:00,
2013-01-17 21:14:00,16.2,9.7,30.35,West,270,0.0,0.0,75,0.00,,CLR,0.00,VWS V14.01,2013-01-18 03:14:00,
2013-01-17 21:15:00,16.2,9.7,30.35,West,270,0.0,0.0,75,0.00,,FEW120,0.00,VWS V14.01,2013-01-18 03:15:00,
2013-01-17 21:19:00,15.8,9.3,30.35,West,270,0.0,0.0,75,0.00,,CLR,0.00,VWS V14.01,2013-01-18 03:19:00,
2013-01-17 21:20:00,15.8,9.3,30.35,West,270,0.0,0.0,75,0.00,,FEW120,0.00,VWS V14.01,2013-01-18 03:20:00,
2013-01-17 21:24:00,15.5,9.3,30.36,West,270,0.0,0.0,76,0.00,,CLR,0.00,VWS V14.01,2013-01-18 03:24:00,
2013-01-17 21:25:00,15.5,9.3,30.36,West,270,0.0,0.0,76,0.00,,FEW120,0.00,VWS V14.01,2013-01-18 03:25:00,
2013-01-17 21:30:00,15.3,9.4,30.36,West,269,0.0,0.0,77,0.00,,CLR,0.00,VWS V14.01,2013-01-18 03:30:00,
2013-01-17 21:35:00,15.3,9.4,30.36,West,270,0.0,0.0,77,0.00,,CLR,0.00,VWS V14.01,2013-01-18 03:35:00,
2013-01-17 21:40:00,15.4,9.5,30.36,West,270,0.0,0.0,77,0.00,,CLR,0.00,VWS V14.01,2013-01-18 03:40:00,
2013-01-17 21:45:00,15.6,10.0,30.35,West,270,0.0,0.0,78,0.00,,CLR,0.00,VWS V14.01,2013-01-18 03:45:00,
2013-01-17 21:50:00,15.8,9.9,30.35,West,270,0.0,0.0,77,0.00,,CLR,0.00,VWS V14.01,2013-01-18 03:50:00,
2013-01-17 21:55:00,15.9,9.7,30.35,West,270,0.0,0.0,76,0.00,,CLR,0.00,VWS V14.01,2013-01-18 03:55:00,
2013-01-17 22:00:00,16.2,10.0,30.35,West,270,0.0,0.0,76,0.00,,FEW120,0.00,VWS V14.01,2013-01-18 04:00:00,
2013-01-17 22:01:00,16.2,10.0,30.35,West,270,0.0,0.0,76,0.00,,CLR,0.00,VWS V14.01,2013-01-18 04:01:00,
2013-01-17 22:05:00,16.1,9.6,30.35,West,270,0.0,0.0,75,0.00,,FEW120,0.00,VWS V14.01,2013-01-18 04:05:00,
2013-01-17 22:06:00,16.1,9.6,30.35,West,270,0.0,0.0,75,0.00,,CLR,0.00,VWS V14.01,2013-01-18 04:06:00,
2013-01-17 22:10:00,16.0,9.5,30.35,West,270,0.0,0.0,75,0.00,,FEW120,0.00,VWS V14.01,2013-01-18 04:10:00,
2013-01-17 22:11:00,15.9,9.4,30.35,West,270,0.0,0.0,75,0.00,,CLR,0.00,VWS V14.01,2013-01-18 04:11:00,
2013-01-17 22:15:00,15.9,9.7,30.35,West,270,0.0,0.0,76,0.00,,FEW120,0.00,VWS V14.01,2013-01-18 04:15:00,
2013-01-17 22:16:00,15.9,9.7,30.35,West,270,0.0,0.0,76,0.00,,CLR,0.00,VWS V14.01,2013-01-18 04:16:00,
2013-01-17 22:20:00,15.7,9.5,30.35,West,270,0.0,0.0,76,0.00,,FEW120,0.00,VWS V14.01,2013-01-18 04:20:00,
2013-01-17 22:21:00,15.7,9.5,30.35,West,270,0.0,0.0,76,0.00,,CLR,0.00,VWS V14.01,2013-01-18 04:21:00,
2013-01-17 22:25:00,15.7,9.5,30.35,West,270,0.0,0.0,76,0.00,,FEW120,0.00,VWS V14.01,2013-01-18 04:25:00,
2013-01-17 22:26:00,15.7,9.5,30.35,West,270,0.0,0.0,76,0.00,,CLR,0.00,VWS V14.01,2013-01-18 04:26:00,
2013-01-17 22:30:00,15.7,9.2,30.35,West,270,0.0,0.0,75,0.00,,FEW120,0.00,VWS V14.01,2013-01-18 04:30:00,
2013-01-17 22:31:00,15.7,9.2,30.35,West,270,0.0,0.0,75,0.00,,CLR,0.00,VWS V14.01,2013-01-18 04:31:00,
2013-01-17 22:35:00,15.6,9.1,30.35,West,270,0.0,0.0,75,0.00,,FEW120,0.00,VWS V14.01,2013-01-18 04:35:00,
2013-01-17 22:36:00,15.5,9.0,30.35,West,271,0.0,0.0,75,0.00,,CLR,0.00,VWS V14.01,2013-01-18 04:36:00,
2013-01-17 22:40:00,15.3,8.8,30.35,NW,317,3.0,5.0,75,0.00,,FEW120,0.00,VWS V14.01,2013-01-18 04:40:00,
2013-01-17 22:41:00,15.3,8.8,30.35,NW,321,0.0,5.0,75,0.00,,CLR,0.00,VWS V14.01,2013-01-18 04:41:00,
2013-01-17 22:45:00,15.2,8.4,30.35,NNW,337,2.0,6.0,74,0.00,,FEW120,0.00,VWS V14.01,2013-01-18 04:45:00,
2013-01-17 22:46:00,15.2,8.4,30.35,NNW,337,1.0,6.0,74,0.00,,CLR,0.00,VWS V14.01,2013-01-18 04:46:00,
2013-01-17 22:50:00,15.3,8.5,30.35,NNW,338,3.0,4.0,74,0.00,,FEW120,0.00,VWS V14.01,2013-01-18 04:50:00,
2013-01-17 22:51:00,15.3,8.5,30.35,NNW,338,2.0,4.0,74,0.00,,CLR,0.00,VWS V14.01,2013-01-18 04:51:00,
2013-01-17 22:55:00,15.3,8.2,30.35,NNW,338,0.0,4.0,73,0.00,,FEW120,0.00,VWS V14.01,2013-01-18 04:55:00,
2013-01-17 22:56:00,15.4,8.3,30.35,NNW,338,1.0,2.0,73,0.00,,CLR,0.00,VWS V14.01,2013-01-18 04:56:00,
2013-01-17 23:00:00,15.4,8.0,30.34,NNW,347,0.0,4.0,72,0.00,,CLR,0.00,VWS V14.01,2013-01-18 05:00:00,
2013-01-17 23:01:00,15.5,8.1,30.34,North,10,3.0,5.0,72,0.00,,CLR,0.00,VWS V14.01,2013-01-18 05:01:00,
2013-01-17 23:04:00,15.5,8.1,30.34,North,5,4.0,6.0,72,0.00,,CLR,0.00,VWS V14.01,2013-01-18 05:04:00,
2013-01-17 23:05:00,15.5,8.1,30.35,North,9,3.0,6.0,72,0.00,,FEW120,0.00,VWS V14.01,2013-01-18 05:05:00,
2013-01-17 23:09:00,15.5,7.8,30.36,North,5,0.0,4.0,71,0.00,,CLR,0.00,VWS V14.01,2013-01-18 05:09:00,
2013-01-17 23:10:00,15.5,7.8,30.35,North,9,0.0,3.0,71,0.00,,FEW120,0.00,VWS V14.01,2013-01-18 05:10:00,
2013-01-17 23:14:00,15.5,7.8,30.35,North,360,0.0,3.0,71,0.00,,CLR,0.00,VWS V14.01,2013-01-18 05:14:00,
2013-01-17 23:15:00,15.5,7.8,30.35,North,360,0.0,3.0,71,0.00,,FEW120,0.00,VWS V14.01,2013-01-18 05:15:00,
2013-01-17 23:19:00,15.3,7.6,30.35,North,360,0.0,0.0,71,0.00,,CLR,0.00,VWS V14.01,2013-01-18 05:19:00,
2013-01-17 23:20:00,15.3,7.6,30.35,North,360,0.0,0.0,71,0.00,,FEW120,0.00,VWS V14.01,2013-01-18 05:20:00,
2013-01-17 23:24:00,15.2,7.5,30.35,North,360,0.0,4.0,71,0.00,,CLR,0.00,VWS V14.01,2013-01-18 05:24:00,
2013-01-17 23:25:00,15.2,7.5,30.35,North,360,0.0,4.0,71,0.00,,FEW120,0.00,VWS V14.01,2013-01-18 05:25:00,
2013-01-17 23:29:00,15.2,7.8,30.36,NNW,336,0.0,4.0,72,0.00,,CLR,0.00,VWS V14.01,2013-01-18 05:29:00,
2013-01-17 23:30:00,15.1,7.7,30.36,NNW,336,1.0,4.0,72,0.00,,FEW120,0.00,VWS V14.01,2013-01-18 05:30:00,
2013-01-17 23:34:00,15.2,7.8,30.36,NNW,338,0.0,1.0,72,0.00,,CLR,0.00,VWS V14.01,2013-01-18 05:34:00,
2013-01-17 23:35:00,15.1,7.7,30.36,NNW,338,0.0,0.0,72,0.00,,FEW120,0.00,VWS V14.01,2013-01-18 05:35:00,
2013-01-17 23:39:00,15.1,8.0,30.36,NNW,338,0.0,0.0,73,0.00,,CLR,0.00,VWS V14.01,2013-01-18 05:39:00,
2013-01-17 23:40:00,15.2,8.1,30.36,NNW,338,0.0,0.0,73,0.00,,FEW120,0.00,VWS V14.01,2013-01-18 05:40:00,
2013-01-17 23:44:00,15.1,8.0,30.36,NNW,338,0.0,0.0,73,0.00,,CLR,0.00,VWS V14.01,2013-01-18 05:44:00,
2013-01-17 23:45:00,15.1,8.0,30.36,NNW,338,0.0,0.0,73,0.00,,FEW120,0.00,VWS V14.01,2013-01-18 05:45:00,
2013-01-17 23:49:00,15.1,8.0,30.36,NNW,338,0.0,0.0,73,0.00,,CLR,0.00,VWS V14.01,2013-01-18 05:49:00,
2013-01-17 23:50:00,15.1,8.3,30.36,NNW,338,0.0,0.0,74,0.00,,FEW120,0.00,VWS V14.01,2013-01-18 05:50:00,
2013-01-17 23:54:00,15.0,8.2,30.37,NNW,338,0.0,0.0,74,0.00,,CLR,0.00,VWS V14.01,2013-01-18 05:54:00,
2013-01-17 23:55:00,15.0,8.2,30.37,NNW,338,0.0,0.0,74,0.00,,FEW120,0.00,VWS V14.01,2013-01-18 05:55:00,
2013-01-17 23:59:00,14.9,8.1,30.37,NNW,338,0.0,0.0,74,0.00,,CLR,0.00,VWS V14.01,2013-01-18 05:59:00,